TimeEST,TemperatureF,Dew PointF,Humidity,Sea Level PressureIn,VisibilityMPH,Wind Direction,Wind SpeedMPH,Gust SpeedMPH,PrecipitationIn,Events,Conditions,WindDirDegrees,DateUTC
12:54 AM,39.9,28.9,65,30.27,10.0,WNW,8.1,-,N/A,,Scattered Clouds,300,2013-01-05 05:54:00
1:54 AM,37.0,28.0,70,30.29,10.0,WNW,4.6,-,N/A,,Clear,300,2013-01-05 06:54:00
2:54 AM,35.1,25.0,67,30.30,10.0,WNW,5.8,-,N/A,,Clear,300,2013-01-05 07:54:00
3:54 AM,36.0,24.1,62,30.30,10.0,NNW,4.6,-,N/A,,Clear,330,2013-01-05 08:54:00
4:54 AM,34.0,21.0,59,30.31,10.0,WNW,4.6,-,N/A,,Clear,300,2013-01-05 09:54:00
5:54 AM,30.9,23.0,72,30.32,10.0,Calm,Calm,-,N/A,,Clear,0,2013-01-05 10:54:00
6:54 AM,30.9,23.0,72,30.34,10.0,NW,3.5,-,N/A,,Clear,320,2013-01-05 11:54:00
7:54 AM,30.9,23.0,72,30.37,10.0,WNW,3.5,-,N/A,,Clear,300,2013-01-05 12:54:00
8:54 AM,37.9,24.1,57,30.38,10.0,NNW,4.6,-,N/A,,Partly Cloudy,330,2013-01-05 13:54:00
9:54 AM,43.0,24.1,47,30.39,10.0,North,4.6,-,N/A,,Scattered Clouds,10,2013-01-05 14:54:00
10:54 AM,45.0,25.0,46,30.39,10.0,NE,5.8,-,N/A,,Clear,50,2013-01-05 15:54:00
11:54 AM,48.0,24.1,39,30.36,10.0,NE,6.9,-,N/A,,Clear,40,2013-01-05 16:54:00
12:54 PM,48.9,23.0,36,30.34,10.0,Calm,Calm,-,N/A,,Scattered Clouds,0,2013-01-05 17:54:00
1:54 PM,51.1,24.1,35,30.32,10.0,Calm,Calm,-,N/A,,Scattered Clouds,0,2013-01-05 18:54:00
2:54 PM,51.1,26.1,38,30.32,10.0,ENE,6.9,-,N/A,,Mostly Cloudy,60,2013-01-05 19:54:00
3:54 PM,48.9,27.0,43,30.31,10.0,East,8.1,-,N/A,,Mostly Cloudy,80,2013-01-05 20:54:00
4:54 PM,46.9,28.0,48,30.32,10.0,East,3.5,-,N/A,,Mostly Cloudy,90,2013-01-05 21:54:00
5:54 PM,42.1,30.0,62,30.35,10.0,Calm,Calm,-,N/A,,Scattered Clouds,0,2013-01-05 22:54:00
6:54 PM,37.9,30.9,76,30.34,10.0,Calm,Calm,-,N/A,,Scattered Clouds,0,2013-01-05 23:54:00
7:54 PM,39.0,30.9,73,30.34,10.0,Calm,Calm,-,N/A,,Scattered Clouds,0,2013-01-06 00:54:00
8:54 PM,37.0,32.0,82,30.32,10.0,SE,3.5,-,N/A,,Mostly Cloudy,130,2013-01-06 01:54:00
9:54 PM,35.1,30.9,85,30.31,10.0,Calm,Calm,-,N/A,,Mostly Cloudy,0,2013-01-06 02:54:00
10:54 PM,36.0,32.0,86,30.29,10.0,Calm,Calm,-,N/A,,Mostly Cloudy,0,2013-01-06 03:54:00
11:54 PM,37.0,32.0,82,30.30,10.0,West,3.5,-,N/A,,Mostly Cloudy,260,2013-01-06 04:54:00